Change the Weather History Date:

Friday, August 9, 2013

  Actual Average Record
Temperature  
Mean Temperature 72 °F -  
Max Temperature 75 °F 76 °F 91 °F (2001)
Min Temperature 69 °F 62 °F 53 °F (1999)
Cooling Degree Days 7    
Growing Degree Days 22 (Base 50)    
Moisture  
Dew Point 71 °F    
Average Humidity 94    
Maximum Humidity 100    
Minimum Humidity 88    
Precipitation  
Precipitation 0.03 in - - ()
Sea Level Pressure  
Sea Level Pressure 29.95 in    
Wind  
Wind Speed 15 mph (SSW)    
Max Wind Speed 28 mph    
Max Gust Speed 40 mph    
Visibility 7 miles    
Events Rain , Thunderstorm    
Averages and records for this station are not official NWS values.
T = Trace of Precipitation, MM = Missing Value Source: NWS Daily Summary

Daily Weather History Graph

Daily Weather History Graph

Search for Another Location

Airport or City:

Trip Planner

Search our weather history database for the weather conditions in past years. The results will help you decide how hot, cold, wet, or windy it might be!

Date:

Astronomy

Aug. 09, 2013 Rise Set
Actual Time 5:44 AM EDT 7:49 PM EDT
Civil Twilight 5:14 AM EDT 8:20 PM EDT
Nautical Twilight 4:36 AM EDT 8:57 PM EDT
Astronomical Twilight 3:55 AM EDT 9:37 PM EDT
Moon 8:30 AM EDT (8/9) 8:54 PM EDT (8/9)
Length of Visible Light 15h 05m
Length of Day
14h 05m
Waxing Crescent, 7% of the Moon is Illuminated
Aug 9
Waxing Crescent
Aug 14
First Quarter
Aug 20
Full
Aug 28
Last Quarter
Sep 5
New

Hourly Weather History & Observations

Time (EDT) Temp. Dew Point Humidity Pressure Visibility Wind Dir Wind Speed Gust Speed Precip Events Conditions
12:15 AM 71.6 °F 69.8 °F 94% 30.09 in 10.0 mi SSW 13.8 mph - N/A   Mostly Cloudy
12:35 AM 71.6 °F 69.8 °F 94% 30.09 in 10.0 mi SSW 12.7 mph - N/A   Overcast
12:55 AM 71.6 °F 69.8 °F 94% 30.08 in 10.0 mi SSW 12.7 mph - N/A   Mostly Cloudy
1:15 AM 71.6 °F 69.8 °F 94% 30.08 in 10.0 mi SSW 11.5 mph - N/A   Scattered Clouds
1:35 AM 71.6 °F 69.8 °F 94% 30.08 in 10.0 mi SSW 12.7 mph 18.4 mph N/A   Partly Cloudy
1:55 AM 71.6 °F 69.8 °F 94% 30.07 in 10.0 mi SSW 11.5 mph 18.4 mph N/A   Partly Cloudy
2:15 AM 71.6 °F 68.0 °F 88% 30.06 in 10.0 mi SW 11.5 mph - N/A   Scattered Clouds
2:35 AM 71.6 °F 68.0 °F 88% 30.06 in 10.0 mi SSW 12.7 mph - N/A   Mostly Cloudy
2:55 AM 71.6 °F 69.8 °F 94% 30.06 in 10.0 mi SSW 12.7 mph - N/A   Mostly Cloudy
3:15 AM 71.6 °F 69.8 °F 94% 30.05 in 10.0 mi SSW 13.8 mph - N/A   Overcast
3:35 AM 71.6 °F 69.8 °F 94% 30.05 in 10.0 mi SSW 13.8 mph - N/A   Overcast
3:55 AM 71.6 °F 69.8 °F 94% 30.05 in 10.0 mi SSW 12.7 mph 18.4 mph N/A   Overcast
4:15 AM 71.6 °F 69.8 °F 94% 30.05 in 10.0 mi SSW 11.5 mph 17.3 mph N/A   Overcast
4:35 AM 71.6 °F 69.8 °F 94% 30.05 in 10.0 mi SSW 13.8 mph - N/A   Overcast
4:55 AM 73.4 °F 69.8 °F 88% 30.05 in 10.0 mi SSW 13.8 mph 23.0 mph N/A   Overcast
5:15 AM 73.4 °F 69.8 °F 88% 30.04 in 10.0 mi SSW 13.8 mph - N/A   Overcast
5:35 AM 73.4 °F 69.8 °F 88% 30.04 in 10.0 mi SSW 10.4 mph - N/A   Overcast
5:55 AM 73.4 °F 69.8 °F 88% 30.05 in 10.0 mi SSW 12.7 mph - N/A   Overcast
6:15 AM 73.4 °F 71.6 °F 94% 30.05 in 10.0 mi SSW 13.8 mph 17.3 mph N/A   Mostly Cloudy
6:35 AM 73.4 °F 71.6 °F 94% 30.04 in 10.0 mi SSW 12.7 mph - N/A   Scattered Clouds
6:55 AM 73.4 °F 69.8 °F 88% 30.04 in 10.0 mi SSW 15.0 mph 20.7 mph N/A   Partly Cloudy
7:15 AM 73.4 °F 69.8 °F 88% 30.04 in 10.0 mi SSW 16.1 mph 20.7 mph N/A   Clear
7:35 AM 73.4 °F 71.6 °F 94% 30.04 in 10.0 mi SSW 13.8 mph - N/A   Scattered Clouds
7:55 AM 73.4 °F 69.8 °F 88% 30.04 in 10.0 mi SSW 15.0 mph - N/A   Partly Cloudy
8:15 AM 73.4 °F 71.6 °F 94% 30.04 in 10.0 mi South 16.1 mph - N/A   Clear
8:35 AM 75.2 °F 71.6 °F 89% 30.03 in 10.0 mi SSW 15.0 mph 18.4 mph N/A   Scattered Clouds
8:55 AM 75.2 °F 71.6 °F 89% 30.03 in 10.0 mi South 15.0 mph - N/A   Mostly Cloudy
9:15 AM 75.2 °F 71.6 °F 89% 30.02 in 10.0 mi South 11.5 mph 17.3 mph N/A   Mostly Cloudy
9:35 AM 75.2 °F 71.6 °F 89% 30.02 in 10.0 mi South 12.7 mph 17.3 mph N/A   Mostly Cloudy
9:55 AM 75.2 °F 71.6 °F 89% 30.01 in 10.0 mi South 13.8 mph 17.3 mph N/A   Mostly Cloudy
10:15 AM 73.4 °F 71.6 °F 94% 30.01 in 10.0 mi South 12.7 mph - N/A   Mostly Cloudy
10:35 AM 73.4 °F 71.6 °F 94% 30.00 in 8.0 mi South 15.0 mph 21.9 mph N/A   Partly Cloudy
10:55 AM 73.4 °F 71.6 °F 94% 30.00 in 8.0 mi South 18.4 mph 21.9 mph N/A Rain Light Rain
11:15 AM 73.4 °F 71.6 °F 94% 29.99 in 3.0 mi South 16.1 mph - N/A Rain Light Rain
11:35 AM 73.4 °F 71.6 °F 94% 29.98 in 5.0 mi South 17.3 mph 26.5 mph N/A Rain Light Rain
11:55 AM 73.4 °F 71.6 °F 94% 29.97 in 6.0 mi South 17.3 mph 21.9 mph 0.01 in   Scattered Clouds
12:15 PM 73.4 °F 71.6 °F 94% 29.97 in 9.0 mi South 15.0 mph 24.2 mph N/A   Mostly Cloudy
12:35 PM 73.4 °F 71.6 °F 94% 29.96 in 6.0 mi South 17.3 mph 24.2 mph N/A   Mostly Cloudy
12:55 PM 73.4 °F 71.6 °F 94% 29.96 in 7.0 mi South 16.1 mph 25.3 mph N/A Rain Light Rain
1:15 PM 73.4 °F 71.6 °F 94% 29.95 in 6.0 mi South 16.1 mph 28.8 mph N/A Rain Light Rain
1:35 PM 73.4 °F 71.6 °F 94% 29.94 in 7.0 mi South 18.4 mph 24.2 mph N/A   Overcast
1:55 PM 71.6 °F 69.8 °F 94% 29.93 in 9.0 mi South 21.9 mph 33.4 mph N/A   Overcast
2:15 PM 71.6 °F 69.8 °F 94% 29.92 in 1.2 mi South 21.9 mph 32.2 mph N/A   Overcast
2:35 PM 69.8 °F 68.0 °F 94% 29.91 in 3.0 mi South 20.7 mph 34.5 mph N/A Thunderstorm Overcast
2:55 PM 69.8 °F 68.0 °F 94% 29.90 in 5.0 mi South 20.7 mph 31.1 mph N/A   Overcast
3:15 PM 71.6 °F 68.0 °F 88% 29.88 in 1.8 mi South 24.2 mph 29.9 mph N/A   Overcast
3:35 PM 71.6 °F 69.8 °F 94% 29.86 in 6.0 mi South 20.7 mph 32.2 mph N/A   Overcast
3:55 PM 71.6 °F 71.6 °F 100% 29.85 in 5.0 mi South 23.0 mph 31.1 mph N/A   Overcast
4:15 PM 71.6 °F 71.6 °F 100% 29.84 in 4.0 mi South 24.2 mph 31.1 mph N/A Rain Light Rain
4:35 PM 71.6 °F 71.6 °F 100% 29.85 in 0.8 mi SSW 17.3 mph 27.6 mph 0.07 in Rain Heavy Rain
4:55 PM 73.4 °F 71.6 °F 94% 29.83 in 7.0 mi South 21.9 mph 32.2 mph 0.07 in   Overcast
5:15 PM 73.4 °F 71.6 °F 94% 29.83 in 1.5 mi SSW 20.7 mph 34.5 mph N/A   Overcast
5:35 PM 73.4 °F 71.6 °F 94% 29.82 in 8.0 mi SSW 19.6 mph 33.4 mph N/A   Overcast
5:55 PM 73.4 °F 73.4 °F 100% 29.82 in 7.0 mi SSW 19.6 mph 29.9 mph N/A   Overcast
6:15 PM 73.4 °F 73.4 °F 100% 29.81 in 7.0 mi SSW 21.9 mph 31.1 mph N/A   Overcast
6:35 PM 73.4 °F 73.4 °F 100% 29.82 in 7.0 mi SW 20.7 mph 40.3 mph N/A   Overcast
6:55 PM 73.4 °F 73.4 °F 100% 29.82 in 7.0 mi SW 24.2 mph 33.4 mph N/A   Overcast
7:15 PM 73.4 °F 73.4 °F 100% 29.82 in 7.0 mi SW 24.2 mph 34.5 mph N/A   Overcast
7:35 PM 73.4 °F 73.4 °F 100% 29.82 in 6.0 mi SW 21.9 mph 32.2 mph N/A   Overcast
7:55 PM 73.4 °F 71.6 °F 94% 29.82 in 6.0 mi SW 20.7 mph 27.6 mph N/A   Overcast
8:15 PM 73.4 °F 71.6 °F 94% 29.82 in 7.0 mi SW 27.6 mph 32.2 mph N/A   Overcast
8:35 PM 73.4 °F 71.6 °F 94% 29.82 in 6.0 mi WSW 20.7 mph 27.6 mph N/A   Overcast
8:55 PM 73.4 °F 71.6 °F 94% 29.83 in 5.0 mi WSW 18.4 mph 28.8 mph N/A   Overcast
9:15 PM 73.4 °F 71.6 °F 94% 29.84 in 4.0 mi WSW 17.3 mph 27.6 mph N/A   Overcast
9:35 PM 71.6 °F 71.6 °F 100% 29.83 in 3.0 mi WSW 18.4 mph 25.3 mph N/A   Overcast
9:55 PM 71.6 °F 71.6 °F 100% 29.83 in 2.5 mi WSW 13.8 mph 19.6 mph N/A   Overcast
10:15 PM 71.6 °F 71.6 °F 100% 29.83 in 1.8 mi WSW 15.0 mph 19.6 mph N/A   Overcast
10:35 PM 71.6 °F 71.6 °F 100% 29.84 in 1.2 mi WSW 13.8 mph - N/A   Overcast
10:55 PM 71.6 °F 71.6 °F 100% 29.84 in 1.0 mi WSW 12.7 mph 19.6 mph N/A   Overcast
11:35 PM 71.6 °F 71.6 °F 100% 29.83 in 1.5 mi WSW 9.2 mph - N/A   Overcast
11:55 PM 71.6 °F 71.6 °F 100% 29.84 in 1.5 mi WSW 10.4 mph 18.4 mph N/A   Overcast